Find Starlink 6034

NORAD ID: 56324 Int'l Des: 2023-058 Owner: SPXS Country: US Constellation: starlink operational
LEOCIRCULARRETROGRADESSO

リアルタイム位置

3D地球を読み込み中...

Starlink 6034について

説明を読み込み中...

次回通過

Passes for default location (London). Set your location on the main map for personalized predictions.

高度履歴

Loading altitude history...

軌道要素

1 56324U 23058H 26126.58791834 -.00001543 00000-0 -10280-3 0 9999
2 56324 97.5288 128.2715 0002119 67.4696 292.6755 15.05645233166562
Epoch: May 6, 2026 • Age: 12 hours

現在のステータス

高度 570.3 km
速度 7.57 km/s
衛星直下点 -49.80°S, 40.46°E
打ち上げ日 Apr 27, 2023
運用期間 3 years
タイプ internet

技術仕様

分類 Payload
質量 300.00 kg
乾燥質量 260.00 kg
総質量 300.00 kg
長さ 0.20 m
直径 2.80 m
スパン 9.00 m
形状 Box + pan
製造者 SPXS
バスタイプ Starlink
フェーズステータス In Orbit
所有者/国 SPXS/US

Most Searched